This is the latest recevied weather packets stored in our database for station/object DC4XK-10. If no packets are shown the sender has not sent any weather packets the latest 10 day(s).
| Time | Temp. | Humidity | Pressure | Rain* | Wind** | Luminosity | Snow |
|---|---|---|---|---|---|---|---|
| 1777887531 | 14.44° C | 79% | 1011.1 hPa | 0 mm | 1.79 m/s, 314° | - | - |
| 1777886931 | 14.44° C | 79% | 1011.2 hPa | 0 mm | 1.34 m/s, 321° | - | - |
| 1777886331 | 14.44° C | 78% | 1011.1 hPa | 0 mm | 1.79 m/s, 307° | - | - |
| 1777885731 | 13.89° C | 81% | 1010.8 hPa | 0 mm | 1.79 m/s, 291° | - | - |
| 1777885130 | 13.89° C | 82% | 1011 hPa | 0 mm | 0.89 m/s, 203° | - | - |
| 1777884531 | 13.33° C | 82% | 1010.8 hPa | 0 mm | 1.34 m/s, 232° | - | - |
| 1777883932 | 12.78° C | 83% | 1011 hPa | 0 mm | 0.45 m/s, 267° | - | - |
| 1777883331 | 12.78° C | 86% | 1010.7 hPa | 0 mm | 2.68 m/s, 323° | - | - |
| 1777882730 | 12.22° C | 87% | 1010.9 hPa | 0 mm | 0 m/s | - | - |
| 1777882133 | 12.22° C | 88% | 1010.7 hPa | 0 mm | 0.89 m/s, 271° | - | - |
| 1777881531 | 12.22° C | 88% | 1010.9 hPa | 0 mm | 3.13 m/s, 323° | - | - |
| 1777880930 | 11.67° C | 89% | 1010.8 hPa | 0 mm | 2.24 m/s, 320° | - | - |
| 1777880333 | 11.67° C | 90% | 1010.8 hPa | 0 mm | 1.34 m/s, 255° | - | - |
| 1777879731 | 11.67° C | 92% | 1010.5 hPa | 0 mm | 0.89 m/s, 344° | - | - |
| 1777879131 | 11.11° C | 93% | 1010.7 hPa | 0 mm | 1.79 m/s, 288° | - | - |
| 1777878532 | 11.11° C | 94% | 1010.3 hPa | 0 mm | 1.79 m/s, 263° | - | - |
| 1777877931 | 11.11° C | 94% | 1010.3 hPa | 0 mm | 3.58 m/s, 241° | - | - |
| 1777877331 | 11.11° C | 94% | 1010.1 hPa | 0 mm | 1.34 m/s, 264° | - | - |
| 1777876731 | 11.11° C | 93% | 1009.9 hPa | 0 mm | 1.34 m/s, 236° | - | - |
| 1777876131 | 11.11° C | 94% | 1009.8 hPa | 0 mm | 1.34 m/s, 263° | - | - |
| 1777875531 | 10.56° C | 96% | 1009.8 hPa | 0 mm | 1.79 m/s, 242° | - | - |
| 1777874931 | 10.56° C | 96% | 1009.7 hPa | 0 mm | 2.24 m/s, 324° | - | - |
| 1777874330 | 11.11° C | 96% | 1009.2 hPa | 0 mm | 0.89 m/s, 249° | - | - |
| 1777873731 | 11.11° C | 96% | 1009.3 hPa | 0 mm | 0.89 m/s, 257° | - | - |
| 1777873131 | 10.56° C | 96% | 1009.3 hPa | 0 mm | 0.89 m/s, 263° | - | - |
* Rain latest hour (hover to see other rain measurements)
** Current wind speed in m/s (hover to see current wind gust speed)